Zurück zum Katalog

STARLINK-5084

AktivKommunikationVLEO
NORAD 54851·PAYLOAD·🇺🇸 United States

Gestartet Dec 28, 2022 von Cape Canaveral Space Force Station

Loading…

Nächste Überflüge (nächste 24 Stunden)

TLE

AktuellSource: CelesTrak SupGP

Epoche: Sep 15, 2026, 03:05 UTC

1 54851C 22177AH  26258.12895833  .00059527  00000+0  21558-2 0  2582
2 54851  43.0023 131.4557 0001608 276.8306 173.8937 15.27551835    11

Verfolge STARLINK-5084 in Echtzeit mit AllMySat

Download on the App Store